This demonstration page uses our WeatherBlox Daily Observations layout. Learn more.

Left ArrowRight Arrow

Hourly Observations for May 17, 2018

Temp ( °F °C ) Dew Point ( °F °C ) Humidity (%) Winds ( mph kmh ) Pressure ( in mb ) Visibility ( mi km ) Precip ( " mm )
12:53 am 00:53 Cloudy 62 16.7 54 12.2 75 75 NNW 6 9 30.01 1016 10 16 0.00 0.00
1:53 am 01:53 Cloudy 62 16.7 55 12.8 78 78 Calm 30.00 1016 10 16 0.00 0.00
2:53 am 02:53 Cloudy 62 16.7 54 12.2 75 75 N 3 6 29.99 1016 10 16 0.00 0.00
3:53 am 03:53 Cloudy 62 16.7 55 12.8 78 78 N 5 7 30.00 1016 10 16 0.00 0.00
4:53 am 04:53 Cloudy 61 16.1 54 12.2 78 78 NE 6 9 29.99 1016 10 16 0.00 0.00
5:53 am 05:53 Cloudy 61 16.1 53 11.7 75 75 N 3 6 29.99 1016 10 16 0.00 0.00
6:53 am 06:53 Cloudy 62 16.7 54 12.2 75 75 NNE 5 7 29.99 1016 10 16 0.00 0.00
7:53 am 07:53 Cloudy 63 17.2 54 12.2 73 73 N 3 6 29.99 1016 10 16 0.00 0.00
8:53 am 08:53 Mostly Cloudy 65 18.3 53 11.7 66 66 N 5 7 29.98 1015 10 16 0.00 0.00
9:53 am 09:53 Sunny 68 20 53 11.7 59 59 SW 3 6 29.97 1015 10 16 0.00 0.00
10:53 am 10:53 Mostly Sunny 70 21.1 53 11.7 55 55 Calm 29.96 1015 10 16 0.00 0.00
11:53 am 11:53 Mostly Sunny 73 22.8 53 11.7 50 50 Calm 29.95 1014 10 16 0.00 0.00
12:53 pm 12:53 Sunny 75 23.9 53 11.7 46 46 VRB 3 6 29.92 1013 10 16 0.00 0.00
1:53 pm 13:53 Sunny 77 25 52 11.1 42 42 Calm 29.89 1012 10 16 0.00 0.00
2:53 pm 14:53 Sunny 81 27.2 51 10.6 35 35 NNW 3 6 29.87 1012 10 16 0.00 0.00
3:53 pm 15:53 Sunny 83 28.3 51 10.6 33 33 N 5 7 29.85 1011 10 16 0.00 0.00
4:53 pm 16:53 Sunny 83 28.3 52 11.1 34 34 W 6 9 29.83 1010 10 16 0.00 0.00
5:53 pm 17:53 Sunny 84 28.9 51 10.6 32 32 Calm 29.82 1010 10 16 0.00 0.00
6:53 pm 18:53 Mostly Sunny 83 28.3 51 10.6 33 33 S 6 9 29.81 1010 10 16 0.00 0.00
7:53 pm 19:53 Sunny 81 27.2 53 11.7 38 38 SSE 7 11 29.82 1010 10 16 0.00 0.00
8:53 pm 20:53 Partly Cloudy 79 26.1 53 11.7 41 41 S 12 19 29.85 1011 10 16 0.00 0.00
9:53 pm 21:53 Clear 73 22.8 56 13.3 55 55 S 7 11 29.87 1012 10 16 0.00 0.00
10:53 pm 22:53 Clear 71 21.7 56 13.3 59 59 Calm 29.89 1012 10 16 0.00 0.00
11:53 pm 23:53 Clear 68 20 56 13.3 65 65 Calm 29.89 1012 10 16 0.00 0.00

Powered by AerisWeather